Regional Weather Roundup
Issued by NWS Newport/Morehead, NC

Current Version | Previous Version | Graphics & Text | Print | Product List | Glossary Off
Versions: 1 2 3 4 5 6 7 8 9 10 11 12 13 14 15 16 17 18 19 20 21 22 23 24 25 26 27 28 29 30 31 32 33 34 35 36 37 38 39 40 41 42 43 44 45 46 47 48 49 50

000
ASUS42 KMHX 161622
RWRMHX
WEATHER ROUNDUP FOR EASTERN NORTH CAROLINA
NATIONAL WEATHER SERVICE NEWPORT/MOREHEAD CITY NC
1200 PM EDT TUE SEP 16 2014

NOTE: "FAIR" INDICATES FEW OR NO CLOUDS BELOW 12,000 FEET
WITH NO SIGNIFICANT WEATHER AND/OR OBSTRUCTIONS TO VISIBILITY

NCZ015>017-031-032-045>047-102-103-161700-
NORTH COAST

CITY           SKY/WX    TMP DP  RH WIND       PRES   REMARKS
EDENTON        MOSUNNY   79  66  65 NW7       30.01F
ELIZABETH CITY MOSUNNY   79  66  64 N7        30.01F
KITTY HAWK     MOSUNNY   77  68  72 W8        30.00F
MANTEO         PTSUNNY   76  68  75 NW8       30.01F

$$

NCZ045>047-081-094-103-104-161700-
CENTRAL COAST

CITY           SKY/WX    TMP DP  RH WIND       PRES   REMARKS
FRISCO         SUNNY     78  68  71 NW8       30.03F
SWANQUARTER      N/A     79 N/A N/A SW9       29.97S

$$

NCZ095-097-098-100-101-161700-
SOUTHERN COAST

CITY           SKY/WX    TMP DP  RH WIND       PRES   REMARKS
BEAUFORT       CLOUDY    79  70  74 S6        30.03F
CEDAR ISLAND     N/A     79 N/A N/A NW5       30.06S
JACKSONVILLE   PTSUNNY   79  71  76 NW6       30.03S
NEWPORT        NOT AVBL
PINEY ISLAND   MOSUNNY   81  68  64 VRB5      30.02F
WILMINGTON     CLOUDY    80  72  76 N9        30.03F


$$

NCZ011>013-027>030-043-044-078>080-089-090>093-098-161700-
COASTAL PLAIN

CITY           SKY/WX    TMP DP  RH WIND       PRES   REMARKS
AHOSKIE        SUNNY     77  63  61 N6        30.02F
CLINTON        CLOUDY    75  70  84 W5        30.05F
ELIZABETHTOWN  CLOUDY    78  69  74 NW8       30.04S
GOLDSBORO      MOSUNNY   79  71  77 CALM      30.02F
GREENVILLE     MOSUNNY   79  68  69 N5        30.05S
HAVELOCK       PTSUNNY   80  69  69 VRB3      30.03F
KENANSVILLE    CLOUDY    77  68  74 NW8       30.05F
KINSTON        PTSUNNY   79  68  69 CALM      30.04F
NEW BERN       CLOUDY    82  70  65 VRB3      30.03F
RICHLANDS      MOSUNNY   81  70  69 W5        30.03F
ROANOKE RAPIDS NOT AVBL
ROCKY MOUNT    SUNNY     81  64  56 NE6       30.03F
WASHINGTON     MOSUNNY   76  67  73 CALM      30.03F
WHITEVILLE     PTSUNNY   79  71  76 CALM      30.03F

$$

AMZ130-135-150-152-154-156-158-170-250-252-270-ANZ085-086-088-633-658-670-161700-
MARINE OBSERVATIONS

STATION/POSITION TIME  TEMP    WIND        PRES    WAVE   SWELL
                       AIR SEA DIR/SP/G            HT/PER HT/PER
                 (UTC) (F)     (DEG/KT/KT) (MB)    (FT/S) (FT/S)
CHESAPEAKE LIGHT 1600   74     290/  9/ 10 1016.8
BUOY 44014       1600   74 79  270/ 12/ 14 1015.5    2/13   2/13
DUCK             1600   75     250/  7/ 11 1015.7
2E DUCK          1600                        N/A     2/13   2/13
OREGON INLET     1600   76     230/  4/  5 1016.5
BUOY 44095       1600      77                N/A     2/12
20E OREGON INLET NOT AVBL
HATTERAS CG      1600   77     290/  5/  6 1017.2
DIAMOND BUOY     1600   76     310/  4/  8 1016.5    2/ 8   2/ 8
CAPE LOOKOUT     1600   79      CALM  /  2 1016.9
BEAUFORT LAB     1600   77     170/  3/  4 1016.7
30 SE NEW RIVER  1600   74 81   80/  6/  8 1017.6    2/13   2/13
5 SE WRIGHTSVILL 1600   74 81   40/ 10/ 12   N/A
BUOY 41002       1535   80 83  260/ 10/ 12 1017.2    3/13   2/13
BUOY 41004       1600   81 84  330/  4/  6 1016.7    2/ 8   2/ 8

$$


USA.gov is the U.S. government's official web portal to all federal, state and local government web resources and services.